Current weather by "City, St" or "zip code"  
 

Current Conditions: Wendover Airport, UT

Fair


29.0 F

Last Updated on Feb 25 2024, 7:56 am MST
Humidity: 92%
Wind Speed: N 0.0 mph
Barometer 30.09 in
Dewpoint: 27.0 F
Visibility: 10.00 mi
Precip: --
Heat Index: NA
Wind Chill: NA
Current conditions at:

Wendover Airport, UT (KENV)

Lat: 40.72056 Lon: 114.03583

Local Radar Image active severe weather and emergency alerts image image weather storm and storm spotter reports image weather observation monitoring service image
Local
Radar
Active
Alerts
Storm Reports Obs
Monitoring

Sign-up For Email & Text Message Weather Alert Notification Services



Advertise Here

Observation History for Wendover Airport, UT


Time Wind
(mph)
Vis
(mi)
Weather Precip (in) Temperature (F) Relative
Humidity
Wind
Chill
(F)
Heat
Index
(F)
Pressure
Air Dwpt altimeter
(in)
sea level
(mb)
Rmks
7:56 am MST N 0.0 10.00 Fair -- 29.0 27.0 92% NA NA 30.09 1020.8
5:56 am MST W 3.5 10.00 Fair -- 28.0 26.1 92% NA NA 30.07 1019.8
2:56 am MST W 3.5 10.00 Fair -- 31.0 28.0 89% NA NA 30.06 1019.2
1:56 am MST N 0.0 10.00 Fair -- 32.0 28.0 85% NA NA 30.06 1019.2
12:56 am MST NE 5.8 10.00 Fair -- 34.0 28.0 79% 29 NA 30.06 1019.3
11:56 pm MST N 5.8 10.00 Fair -- 35.0 28.9 78% 30 NA 30.07 1019.6
9:56 pm MST N 0.0 10.00 Fair -- 39.0 30.9 73% NA NA 30.08 1019.9
8:56 pm MST W 4.6 10.00 Fair -- 40.0 33.1 77% 37 NA 30.07 1020.0
7:56 pm MST W 5.8 10.00 Fair -- 43.0 35.1 74% 39 NA 30.08 1020.5
6:56 pm MST N 0.0 10.00 Fair -- 47.0 34.0 61% NA NA 30.09 1020.6
5:56 pm MST N 0.0 10.00 Fair -- 50.0 33.1 52% NA NA 30.10 1020.6
3:56 pm MST 3.5 10.00 Fair -- 49.0 30.9 50% NA NA 30.11 1021.2
2:56 pm MST 4.6 10.00 Fair -- 48.0 30.9 52% 46 NA 30.13 1021.8
1:56 pm MST E 4.6 10.00 Fair -- 47.0 30.0 52% 45 NA 30.15 1022.4
11:56 am MST E 5.8 10.00 Fair -- 42.0 34.0 73% 38 NA 30.21 1024.5
10:56 am MST SE 3.5 10.00 Fair -- 41.0 33.1 73% NA NA 30.22 1024.9
9:56 am MST N 0.0 10.00 Fair -- 38.0 36.0 93% NA NA 30.23 1025.3
8:56 am MST N 0.0 10.00 Fair -- 33.0 30.9 92% NA NA 30.25 1026.2

Regional Weather Observation


Eagle Range, UT (KU16)

NULL
65.0 F

Elko, Elko Regional Airport, NV (KEKO)

Fair
25.0 F

Bolinder Field-Tooele Valley Airport, UT (KTVY)

Fair
32.0 F

Joslin Field - Magic Valley Regional Airport, ID (KTWF)

Fair
39.0 F

Ogden-Hinckley Airport, UT (KOGD)

Fair
36.0 F

Ely, Ely Airport, NV (KELY)

Fair
23.0 F

Advertise Here


Advertise Here